Location: Del Amo
(33.8464°N, 118.2104°W)
Time: 18:14:05
(UTC+00:00)

STRAND 1 - Pass Details

Date: 07 October 2024
Orbit: 764 x 776 km, 98.4° (Epoch: 07 November)

Event Time Altitude Azimuth Distance (km) Brightness Sun altitude
Rises 02:50:25 0° 1° (N) 3,262 ? -17.6°
Reaches altitude 10° 02:52:55 10° 352° (N) 2,329 ? -18.1°
Maximum altitude 02:57:29 34° 289° (WNW) 1,264 ? -19.1°
Drops below altitude 10° 03:02:02 10° 226° (SW) 2,311 ? -20.0°
Sets 03:04:31 0° 217° (SW) 3,232 ? -20.5°
